Notices

What's New in latest Release from April 7th, 2021:

- Updated Glossary, including Speed of Maximum Gust, and Total Hourly Precipitation

- Updated national and regional climate services offices contacts and prices information

- Addition of station inventory lists for 1981-2010, 1971-2000, and 1961-1990 Normals.

If you haven't already, please take our survey and provide feedback about our website: https://eccc.sondage-survey.ca/f/LanguageSelection.aspx?s=442ca660-fcf1-47c0-95a9-59707d6fd709

Hourly Data Report for March 08, 2021

NANAIMO A
BRITISH COLUMBIA
Current Station Operator: NAVCAN

49°03'16.000" N
123°52'12.000" W
28.00 m
1025365
YCD

Download Data

Hourly Data (March 2021)
Hourly Data Report for March 8, 2021
TIME
LST
Temp Definition
°C
Dew Point Definition
°C
Rel Hum Definition
%
Precip. Amount Definition
mm

Wind Dir Definition
10's deg

Wind Spd Definition
km/h
Visibility Definition
km
Stn Press Definition
kPa
Hmdx Definition


Wind Chill Definition


Weather Definition


00:00 5.1 2.2 81 LegendMM 14 14 LegendMM 101.74     LegendNANA
01:00 4.7 2.5 85 LegendMM 10 13 LegendMM 101.70     LegendNANA
02:00 5.0 2.5 84 LegendMM 12 10 LegendMM 101.69     LegendNANA
03:00 4.9 2.2 83 LegendMM 12 8 LegendMM 101.62     LegendNANA
04:00 4.8 2.4 84 LegendMM 11 6 LegendMM 101.56     LegendNANA
05:00 5.0 2.4 83 LegendMM 13 8 LegendMM 101.52     LegendNANA
06:00 5.0 2.0 81 LegendMM 14 12 LegendMM 101.48     LegendNANA
07:00 4.2 1.7 84 LegendMM 15 8 LegendMM 101.44     LegendNANA
08:00 4.8 1.5 79 LegendMM 14 5 LegendMM 101.42     LegendNANA
09:00 5.5 1.2 74 LegendMM 13 7 LegendMM 101.38     LegendNANA
10:00 6.5 1.0 68 LegendMM 17 12 LegendMM 101.36     LegendNANA
11:00 7.5 1.2 64 LegendMM 16 12 LegendMM 101.29     LegendNANA
12:00 8.1 -0.4 55 LegendMM 16 18 LegendMM 101.27     LegendNANA
13:00 8.2 -1.1 52 LegendMM 14 11 LegendMM 101.23     LegendNANA
14:00 8.4 -1.8 48 LegendMM 9 9 LegendMM 101.15     LegendNANA
15:00 9.0 -2.0 46 LegendMM 12 6 LegendMM 101.10     LegendNANA
16:00 9.3 -1.5 46 LegendMM 12 3 LegendMM 101.07     LegendNANA
17:00 8.4 -1.6 49 LegendMM 22 3 LegendMM 101.03     LegendNANA
18:00 6.0 0.5 68 LegendMM 25 5 LegendMM 101.03     LegendNANA
19:00 4.3 0.4 76 LegendMM 31 4 LegendMM 101.06     LegendNANA
20:00 3.6 0.0 77 LegendMM 27 10 LegendMM 101.06     LegendNANA
21:00 2.9 -0.6 78 LegendMM 26 6 LegendMM 101.07     LegendNANA
22:00 2.3 -0.3 83 LegendMM 23 2 LegendMM 101.10     LegendNANA
23:00 1.5 -0.7 85 LegendMM 27 3 LegendMM 101.13     LegendNANA

Notes on Data Quality.

Legend

  • E = Estimated
  • M = Missing
  • NA = Not Available*
  • [empty] = Indicates an unobserved value
Date modified: